Terug naar catalogus

STARLINK-37136

ActiefCommunicatieVLEO
NORAD 68347·PAYLOAD·🇺🇸 United States

Gelanceerd Mar 22, 2026 vanaf Cape Canaveral Space Force Station

Loading…

Volgende Passages (komende 24 uur)

TLE

VersSource: CelesTrak SupGP

Epoch: Sep 15, 2026, 03:36 UTC

1 68347C 26059AC  26258.15048611 -.00023381  00000+0 -69088-3 0  2589
2 68347  53.1584 186.3838 0001336  83.8695 108.5330 15.34398866    19

Volg STARLINK-37136 in realtime met AllMySat

Download on the App Store